Flag Weather past 2 weeks in Bloemfontein, South Africa

Now
64 °F

Thunderstorms. Broken clouds.


Feels Like: 64 °F
Forecast: 53 / 75 °F
Wind: 9 mph from Northwest

Location: Bloemfontein Airport

Current Time: Nov 27, 2014 at 3:14:11 PM

Latest Report: Nov 27, 2014 at 2:00 PM


Visibility: 3 mi

Pressure: 29.92 "Hg

Humidity: 83%

Dew point: 59 °F

Location of BloemfonteinLocation

Historic Weather in Bloemfontein — Graph

°F

Bloemfontein temperature yesterday

Maximum temperature yesterday: 88 °F (at 3:00 PM)
Minimum temperature yesterday: 59 °F (at 1:00 AM)
Average temperature yesterday: 70 °F

Past Weeks' High & Low Weather Summary

 TemperatureHumidityPressure
High88 °F (Nov 26, 3:00 PM)94% (Nov 13, 5:00 AM)30.36 "Hg (Nov 13, 5:00 AM)
Low41 °F (Nov 17, 5:00 AM)10% (Nov 17, 5:00 PM)29.89 "Hg (Nov 26, 6:00 PM)
Average65 °F50%30.11 "Hg
* Reported Nov 12 2:00 PM — Nov 27 2:00 PM, Bloemfontein, Weather by CustomWeather, © 2014

Note: Actual official high and low records may vary slightly from our data, if they occured in-between our weather recording intervals... More about our weather records

Advertising

Bloemfontein weather history for previous 24 hours

 ConditionsComfort  
Time TempWeatherWind HumidityBarometerVisibility
2:00 PM
Nov 27
64 °FThunderstorms. Broken clouds.9 mph83%29.92 "Hg3 mi
11:00 AM70 °FThunderstorms. Scattered clouds.12 mph60%30.01 "HgN/A
10:00 AM72 °FScattered clouds.21 mph61%29.98 "HgN/A
9:00 AM72 °FScattered clouds.20 mph57%29.98 "HgN/A
8:00 AM66 °FPassing clouds.15 mph68%30.01 "HgN/A
7:00 AM64 °FSunny.12 mph73%30.01 "Hg10 mi
6:00 AM63 °FSunny.9 mph77%30.01 "Hg10 mi
5:00 AM61 °FPassing clouds.15 mph83%29.98 "HgN/A
4:00 AM61 °FCool.14 mph83%29.98 "HgN/A
3:00 AM61 °FCool.12 mph83%29.98 "HgN/A
2:00 AM61 °FCool.12 mph77%29.98 "HgN/A
1:00 AM63 °FMild.12 mph73%29.98 "HgN/A
12:00 AM63 °FMild.5 mph77%29.98 "HgN/A
11:00 PM
Nov 26
64 °FMild.6 mph68%29.98 "HgN/A
10:00 PM64 °FMild.3 mph78%29.95 "HgN/A
9:00 PM64 °FMild.8 mph73%29.92 "HgN/A
8:00 PM64 °FThunderstorms. Passing clouds.13 mph73%29.98 "HgN/A
7:00 PM66 °FThunderstorms. Partly cloudy.26 mph68%29.98 "HgN/A
6:00 PM82 °FPassing clouds.7 mph40%29.89 "HgN/A
4:00 PM88 °FPassing clouds.7 mph27%29.92 "HgN/A
3:00 PM88 °FPassing clouds.8 mph27%29.95 "HgN/A
Weather by CustomWeather, © 2014

See weather overviewHow to use our weather pages